This is the latest recevied weather packets stored in our database for station/object IK2ILW-6. If no packets are shown the sender has not sent any weather packets the latest 10 day(s).
| Time | Temp. | Humidity | Pressure | Rain* | Wind** | Luminosity | Snow |
|---|---|---|---|---|---|---|---|
| 1777722698 | 8.89° C | 75% | 1026.1 hPa | 0 mm | - | 846 W/m² | - |
| 1777722394 | 8.89° C | 74% | 1026 hPa | 0 mm | - | 837 W/m² | - |
| 1777722097 | 9.44° C | 75% | 1026.2 hPa | 0 mm | - | 902 W/m² | - |
| 1777721801 | 8.33° C | 75% | 1026.3 hPa | 0 mm | - | 896 W/m² | - |
| 1777721486 | 8.89° C | 73% | 1026.2 hPa | 0 mm | - | 893 W/m² | - |
| 1777721189 | 8.89° C | 75% | 1026.2 hPa | 0 mm | - | 902 W/m² | - |
| 1777720891 | 8.89° C | 73% | 1026.2 hPa | 0 mm | - | 889 W/m² | - |
| 1777720595 | 8.89° C | 77% | 1026.3 hPa | 0 mm | - | 911 W/m² | - |
| 1777720282 | 8.89° C | 72% | 1026.4 hPa | 0 mm | - | 902 W/m² | - |
| 1777719986 | 8.33° C | 73% | 1026.4 hPa | 0 mm | - | 902 W/m² | - |
| 1777719698 | 8.89° C | 73% | 1026.5 hPa | 0 mm | - | 884 W/m² | - |
| 1777719403 | 9.44° C | 70% | 1026.6 hPa | 0 mm | - | 886 W/m² | - |
| 1777719090 | 8.89° C | 76% | 1026.6 hPa | 0 mm | - | 912 W/m² | - |
| 1777718785 | 8.89° C | 72% | 1026.6 hPa | 0 mm | - | 911 W/m² | - |
| 1777718491 | 9.44° C | 70% | 1026.7 hPa | 0 mm | - | 904 W/m² | - |
| 1777718195 | 8.89° C | 73% | 1026.6 hPa | 0 mm | - | 889 W/m² | - |
| 1777717900 | 8.89° C | 73% | 1026.6 hPa | 0 mm | - | 870 W/m² | - |
| 1777717587 | 8.89° C | 70% | 1026.6 hPa | 0 mm | - | 935 W/m² | - |
| 1777717289 | 8.89° C | 71% | 1026.7 hPa | 0 mm | - | 882 W/m² | - |
| 1777716993 | 8.33° C | 72% | 1026.6 hPa | 0 mm | - | 860 W/m² | - |
| 1777716697 | 8.33° C | 73% | 1026.7 hPa | 0 mm | - | 877 W/m² | - |
| 1777716402 | 8.33° C | 73% | 1026.6 hPa | 0 mm | - | 863 W/m² | - |
| 1777716101 | 8.33° C | 75% | 1026.6 hPa | 0 mm | - | 833 W/m² | - |
| 1777715789 | 8.33° C | 72% | 1026.7 hPa | 0 mm | - | 854 W/m² | - |
| 1777715493 | 8.33° C | 70% | 1026.7 hPa | 0 mm | - | 838 W/m² | - |
* Rain latest hour (hover to see other rain measurements)
** Current wind speed in m/s (hover to see current wind gust speed)